When you browse on this site, cookies collect data to enhance your experience and personalize the content and advertising you see.
Visit our Privacy Policy to learn more. By continuing to use the site, you agree to this use of cookies and data.
  • In Österreich
  • Länderverzeichnis
  • Für 7 Tage
  • Wassertemperatur
  • Wetterkarte
  • News
  • Widgets
  • user-avatar
    Anmelden

    Stündliche Wetter Santa Fe

    Heute, 15 Dezember, Sonntag

    Zeit Temperatur Niederschläge Wind Luftdruck Luftfeuchtigkeit
    00:00 +21°C° 4.4 mm 6 m/S 754 mmHg 94%
    01:00 +20°C° 4.4 mm 4 m/S 754 mmHg 96%
    02:00 +20°C° 0 mm 4 m/S 754 mmHg 95%
    03:00 +20°C° 13.3 mm 4 m/S 753 mmHg 96%
    04:00 +20°C° 13.3 mm 5 m/S 753 mmHg 97%
    05:00 +20°C° 13.3 mm 5 m/S 753 mmHg 98%
    06:00 +20°C° 7.2 mm 4 m/S 754 mmHg 97%
    07:00 +20°C° 7.2 mm 3 m/S 755 mmHg 95%
    08:00 +21°C° 0 mm 3 m/S 755 mmHg 95%
    09:00 +22°C° 0.2 mm 3 m/S 755 mmHg 91%
    10:00 +24°C° 0.2 mm 3 m/S 755 mmHg 87%
    11:00 +24°C° 0.2 mm 3 m/S 755 mmHg 83%
    12:00 +26°C° 0.3 mm 3 m/S 754 mmHg 74%
    13:00 +28°C° 0.3 mm 3 m/S 754 mmHg 66%
    14:00 +29°C° 0.3 mm 3 m/S 754 mmHg 57%
    15:00 +29°C° 0 mm 3 m/S 753 mmHg 56%
    16:00 +30°C° 0 mm 3 m/S 753 mmHg 55%
    17:00 +30°C° 0 mm 3 m/S 752 mmHg 53%
    18:00 +28°C° 0 mm 3 m/S 753 mmHg 55%
    19:00 +26°C° 0 mm 3 m/S 753 mmHg 57%
    20:00 +24°C° 0 mm 2 m/S 754 mmHg 59%
    21:00 +23°C° 0 mm 2 m/S 754 mmHg 61%
    22:00 +23°C° 0 mm 2 m/S 754 mmHg 63%
    23:00 +21°C° 0 mm 2 m/S 755 mmHg 64%

    Morgen, 16 Dezember, Montag

    Zeit Temperatur Niederschläge Wind Luftdruck Luftfeuchtigkeit
    00:00 +22°C° 0 mm 1 m/S 755 mmHg 66%
    01:00 +21°C° 0 mm 1 m/S 754 mmHg 67%
    02:00 +21°C° 0 mm 1 m/S 754 mmHg 68%
    03:00 +20°C° 0 mm 1 m/S 754 mmHg 67%
    04:00 +20°C° 0 mm 1 m/S 754 mmHg 67%
    05:00 +20°C° 0 mm 1 m/S 755 mmHg 66%
    06:00 +22°C° 0 mm 1 m/S 755 mmHg 63%
    07:00 +23°C° 0 mm 1 m/S 755 mmHg 59%
    08:00 +25°C° 0 mm 1 m/S 756 mmHg 56%
    09:00 +27°C° 0 mm 1 m/S 756 mmHg 52%
    10:00 +29°C° 0 mm 1 m/S 755 mmHg 48%
    11:00 +31°C° 0 mm 1 m/S 755 mmHg 44%
    12:00 +31°C° 0 mm 2 m/S 755 mmHg 40%
    13:00 +32°C° 0 mm 2 m/S 754 mmHg 36%
    14:00 +33°C° 0 mm 3 m/S 754 mmHg 32%
    15:00 +31°C° 0 mm 3 m/S 753 mmHg 36%
    16:00 +30°C° 0 mm 3 m/S 753 mmHg 39%
    17:00 +29°C° 0 mm 3 m/S 752 mmHg 43%
    18:00 +28°C° 0 mm 3 m/S 753 mmHg 46%
    19:00 +26°C° 0 mm 3 m/S 754 mmHg 49%
    20:00 +24°C° 0 mm 3 m/S 754 mmHg 52%
    21:00 +22°C° 0 mm 3 m/S 755 mmHg 52%
    22:00 +22°C° 0 mm 3 m/S 755 mmHg 52%
    23:00 +21°C° 0 mm 3 m/S 756 mmHg 53%

    übermorgen, 17 Dezember, Dienstag

    Zeit Temperatur Niederschläge Wind Luftdruck Luftfeuchtigkeit
    00:00 +20°C° 0 mm 3 m/S 755 mmHg 55%
    01:00 +19°C° 0 mm 2 m/S 755 mmHg 58%
    02:00 +18°C° 0 mm 2 m/S 755 mmHg 61%
    03:00 +18°C° 0 mm 2 m/S 755 mmHg 61%
    04:00 +17°C° 0 mm 2 m/S 755 mmHg 62%
    05:00 +17°C° 0 mm 3 m/S 755 mmHg 62%
    06:00 +19°C° 0 mm 3 m/S 756 mmHg 59%
    07:00 +21°C° 0 mm 2 m/S 756 mmHg 55%
    08:00 +24°C° 0 mm 2 m/S 756 mmHg 51%
    09:00 +27°C° 0 mm 2 m/S 756 mmHg 46%
    10:00 +29°C° 0 mm 2 m/S 756 mmHg 42%
    11:00 +31°C° 0 mm 1 m/S 756 mmHg 37%
    12:00 +32°C° 0 mm 1 m/S 756 mmHg 33%
    13:00 +33°C° 0 mm 1 m/S 755 mmHg 29%
    14:00 +34°C° 0 mm 1 m/S 755 mmHg 25%
    15:00 +34°C° 0 mm 1 m/S 754 mmHg 27%
    16:00 +34°C° 0 mm 1 m/S 754 mmHg 29%
    17:00 +33°C° 0 mm 1 m/S 754 mmHg 31%
    18:00 +31°C° 0 mm 2 m/S 754 mmHg 37%
    19:00 +28°C° 0 mm 2 m/S 754 mmHg 43%
    20:00 +25°C° 0 mm 3 m/S 754 mmHg 48%
    21:00 +25°C° 0 mm 3 m/S 755 mmHg 52%
    22:00 +24°C° 0 mm 3 m/S 755 mmHg 56%
    23:00 +22°C° 0 mm 3 m/S 756 mmHg 60%

    18 Dezember, Mittwoch

    Zeit Temperatur Niederschläge Wind Luftdruck Luftfeuchtigkeit
    00:00 +22°C° 0 mm 3 m/S 756 mmHg 62%
    01:00 +21°C° 0 mm 3 m/S 756 mmHg 64%
    02:00 +21°C° 0 mm 4 m/S 755 mmHg 67%
    03:00 +21°C° 0 mm 3 m/S 756 mmHg 69%
    04:00 +20°C° 0 mm 3 m/S 756 mmHg 71%
    05:00 +20°C° 0 mm 3 m/S 756 mmHg 73%
    06:00 +21°C° 0 mm 3 m/S 756 mmHg 67%
    07:00 +23°C° 0 mm 4 m/S 757 mmHg 62%
    08:00 +26°C° 0 mm 4 m/S 757 mmHg 56%
    09:00 +28°C° 0 mm 4 m/S 757 mmHg 51%
    10:00 +30°C° 0 mm 4 m/S 757 mmHg 45%
    11:00 +33°C° 0 mm 4 m/S 757 mmHg 40%
    12:00 +33°C° 0 mm 4 m/S 756 mmHg 37%
    13:00 +34°C° 0 mm 4 m/S 755 mmHg 35%
    14:00 +34°C° 0 mm 4 m/S 755 mmHg 32%
    15:00 +34°C° 0 mm 4 m/S 754 mmHg 34%
    16:00 +33°C° 0 mm 4 m/S 754 mmHg 37%
    17:00 +33°C° 0 mm 4 m/S 753 mmHg 39%
    18:00 +30°C° 0 mm 4 m/S 753 mmHg 45%
    19:00 +28°C° 0 mm 4 m/S 754 mmHg 51%
    20:00 +25°C° 0 mm 4 m/S 754 mmHg 56%
    21:00 +25°C° 0 mm 4 m/S 754 mmHg 55%
    22:00 +24°C° 0 mm 3 m/S 754 mmHg 54%
    23:00 +22°C° 0 mm 3 m/S 755 mmHg 53%

    19 Dezember, Donnerstag

    Zeit Temperatur Niederschläge Wind Luftdruck Luftfeuchtigkeit
    00:00 +22°C° 0 mm 3 m/S 754 mmHg 56%
    01:00 +21°C° 0 mm 3 m/S 754 mmHg 58%
    02:00 +20°C° 0 mm 3 m/S 754 mmHg 61%
    03:00 +20°C° 0 mm 3 m/S 754 mmHg 63%
    04:00 +20°C° 0 mm 3 m/S 754 mmHg 65%
    05:00 +19°C° 0 mm 3 m/S 754 mmHg 66%
    06:00 +22°C° 0 mm 3 m/S 754 mmHg 64%
    07:00 +25°C° 0 mm 3 m/S 754 mmHg 61%
    08:00 +27°C° 0 mm 3 m/S 754 mmHg 58%
    09:00 +29°C° 0 mm 3 m/S 754 mmHg 53%
    10:00 +31°C° 0 mm 3 m/S 754 mmHg 48%
    11:00 +35°C° 0 mm 2 m/S 754 mmHg 42%
    12:00 +36°C° 0 mm 2 m/S 753 mmHg 38%
    13:00 +36°C° 0 mm 2 m/S 752 mmHg 34%
    14:00 +37°C° 0 mm 2 m/S 752 mmHg 30%
    15:00 +37°C° 0 mm 2 m/S 751 mmHg 32%
    16:00 +37°C° 0 mm 2 m/S 751 mmHg 33%
    17:00 +37°C° 0 mm 2 m/S 751 mmHg 35%
    18:00 +34°C° 0 mm 2 m/S 751 mmHg 39%
    19:00 +31°C° 0 mm 2 m/S 751 mmHg 43%
    20:00 +29°C° 0 mm 2 m/S 751 mmHg 47%
    21:00 +29°C° 0 mm 3 m/S 751 mmHg 50%
    22:00 +28°C° 0 mm 3 m/S 751 mmHg 53%
    23:00 +28°C° 0 mm 4 m/S 751 mmHg 56%

    20 Dezember, Freitag

    Zeit Temperatur Niederschläge Wind Luftdruck Luftfeuchtigkeit
    00:00 +27°C° 0 mm 4 m/S 750 mmHg 58%
    01:00 +27°C° 0 mm 4 m/S 750 mmHg 60%
    02:00 +26°C° 0 mm 4 m/S 749 mmHg 63%
    03:00 +26°C° 0 mm 4 m/S 750 mmHg 63%
    04:00 +26°C° 0 mm 3 m/S 750 mmHg 63%
    05:00 +26°C° 0 mm 3 m/S 750 mmHg 63%
    06:00 +26°C° 0.3 mm 3 m/S 751 mmHg 67%
    07:00 +26°C° 0.3 mm 3 m/S 752 mmHg 71%
    08:00 +26°C° 0.3 mm 4 m/S 752 mmHg 76%
    09:00 +26°C° 0.9 mm 5 m/S 753 mmHg 76%
    10:00 +26°C° 0.9 mm 6 m/S 754 mmHg 77%
    11:00 +26°C° 0.9 mm 7 m/S 754 mmHg 78%
    12:00 +26°C° 1 mm 7 m/S 754 mmHg 77%
    13:00 +24°C° 1 mm 7 m/S 754 mmHg 77%
    14:00 +24°C° 1 mm 7 m/S 754 mmHg 76%
    15:00 +23°C° 0.6 mm 6 m/S 754 mmHg 78%
    16:00 +22°C° 0.6 mm 6 m/S 754 mmHg 79%
    17:00 +22°C° 0.6 mm 6 m/S 754 mmHg 81%
    18:00 +21°C° 0 mm 4 m/S 754 mmHg 83%
    19:00 +20°C° 0 mm 3 m/S 755 mmHg 85%
    20:00 +20°C° 0 mm 1 m/S 755 mmHg 87%
    21:00 +20°C° 0 mm 1 m/S 756 mmHg 88%
    22:00 +17°C° 0 mm 0 m/S 756 mmHg 89%
    23:00 +17°C° 0 mm 0 m/S 756 mmHg 91%
    Mehr zeigen